Discarica di Monteschiantello Fano (PU) (lat. 43.789272 - lon. 13.063131) Temps solaire
Dernière mise à jour :21/05/2019 02:53:00

Temperatura (°C) - Valeurs moyennes et maximales minimales au cours des dernières 72 heures


Precipitazione totale (mm) - Valeurs au cours des dernières 72 heures


Velocità del vento (m/s) - Valeurs moyennes et maximales minimales au cours des dernières 72 heures


Dernières valeurs mesurées

MesureDernière valeur observéeTrendDate de détection
Temperatura med. (°C)11,82 21/05/2019 01:00:00
Temperatura min. (°C)11,51 21/05/2019 01:00:00
Temperatura max. (°C)12,30 21/05/2019 01:00:00
Umidità relativa med. (%)77,61 21/05/2019 01:00:00
Umidità relativa min. (%)75,04 21/05/2019 01:00:00
Umidità relativa max. (%)79,25 21/05/2019 01:00:00
Pressione atmosferica med. (hPa)997,64 21/05/2019 01:00:00
Radiazione netta med. (W/m^2)-19,99 21/05/2019 01:00:00
Radiazione netta min. (W/m^2)-32,82 21/05/2019 01:00:00
Radiazione netta max. (W/m^2)-8,15 21/05/2019 01:00:00
Velocità vento med. (m/s)0,58 21/05/2019 01:00:00
Velocità vento min. (m/s)0,00 21/05/2019 01:00:00
Velocità vento max. (m/s)4,03 21/05/2019 01:00:00
Direzione vento (gradi)246,53 21/05/2019 01:00:00
Precipitazione totale (mm)0,00 21/05/2019 01:00:00
Contenuto idrico terreno Med. (%)23,27 21/05/2019 01:00:00
Contenuto idrico terreno Min. (%)20,67 21/05/2019 01:00:00
Contenuto idrico terreno Max. (%)24,39 21/05/2019 01:00:00
Radiazione globale med. (W/m^2)0,00 21/05/2019 01:00:00
Radiazione globale min. (W/m^2)0,00 21/05/2019 01:00:00
Radiazione globale max. (W/m^2)0,07 21/05/2019 01:00:00
Temperatura suolo med. (°C)13,03 21/05/2019 01:00:00
Temperatura suolo min. (°C)12,98 21/05/2019 01:00:00
Temperatura suolo max. (°C)13,08 21/05/2019 01:00:00

Chargement…

..

...